Location: Unnamed
(51.8936°N, 11.0665°E)
Time: 15:12:00
(UTC+02:00)

XW-2B - Visible Passes

Search period start: 24 September 2021 00:00
Search period end: 04 October 2021 00:00
Orbit: 505 x 523 km, 97.5° (Epoch: 24 September)

Date Brightness Start Highest point End Pass type
(mag) Time Alt. Az. Time Alt. Az. Time Alt. Az.
24 Sep ? 06:04:21 10° ENE 06:05:13 11° E 06:06:04 10° E visible
25 Sep ? 19:42:10 10° WSW 19:43:57 13° W 19:45:45 10° WNW visible
28 Sep ? 06:35:23 10° NE 06:38:23 22° E 06:41:20 10° SE visible
29 Sep ? 06:20:35 10° NE 06:22:56 16° E 06:25:16 10° SE visible
30 Sep ? 06:06:18 10° ENE 06:07:27 11° E 06:08:35 10° ESE visible
01 Oct ? 19:44:35 10° WSW 19:46:10 12° W 19:47:45 10° WNW visible
02 Oct ? 19:28:08 10° SW 19:30:41 17° W 19:33:15 10° NW visible
